Location: Observatoire
(46.1952°N, 5.3391°E)
Time: 22:16:56
(UTC+01:00)

Tiros 1 despin weight - Pass Details

Date: 21 February 2026
Orbit: 556 x 593 km, 48.2° (Epoch: 3 March)

Event Time Altitude Azimuth Distance (km) Brightness Sun altitude
Rises 13:14:07 0° 198° (SSW) 2,745 ? 33.1°
Reaches altitude 10° 13:17:03 10° 177° (S) 1,846 ? 33.1°
Maximum altitude 13:19:41 16° 138° (SE) 1,488 ? 33.0°
Drops below altitude 10° 13:22:18 10° 99° (E) 1,842 ? 33.0°
Sets 13:25:13 0° 78° (ENE) 2,737 ? 32.9°
